Location: Kellogg
(38.0159°N, 90.0546°W)
Time: 01:52:40
(UTC+00:00)

ARIANE 6 FM1 Upper Stage - Pass Details

Date: 23 January 2026
Orbit: 522 x 609 km, 62.0° (Epoch: 7 February)

Event Time Altitude Azimuth Distance (km) Brightness Sun altitude
Rises 23:53:17 0° 205° (SSW) 2,727 6.9 -8.2°
Reaches altitude 10° 23:55:32 10° 202° (SSW) 1,822 5.9 -8.6°
Maximum altitude 23:59:34 62° 122° (ESE) 613 2.7 -9.3°
Drops below altitude 10° 00:03:32 10° 41° (NE) 1,788 4.7 -10.1°
Enters shadow 00:03:35 10° 41° (NE) 1,804 4.7 -10.1°
